Weather History for KPLU - January, 2013

Change the Weather History Date:

Thursday, January 3, 2013

  Actual Average (KTCM) Record (KTCM)
Temperature  
Mean Temperature 30 °F -  
Max Temperature 41 °F 44 °F 57 °F (2003)
Min Temperature 19 °F 32 °F 16 °F (1979)
Degree Days  
Heating Degree Days 35    
Moisture  
Dew Point 30 °F    
Average Humidity 94    
Maximum Humidity 100    
Minimum Humidity 65    
Precipitation  
Precipitation 0.04 in - - ()
Sea Level Pressure  
Sea Level Pressure 30.13 in    
Wind  
Wind Speed 0 mph (WSW)    
Max Wind Speed 4 mph    
Max Gust Speed -    
Visibility 9 miles    
Events Rain , Snow    
Averages and records for this station are not official NWS values.
T = Trace of Precipitation, MM = Missing Value Source: NWS Daily Summary

Daily Weather History Graph

Daily Weather History Graph

Search for Another Location

Airport or City:

Trip Planner

Search our weather history database for the weather conditions in past years. The results will help you decide how hot, cold, wet, or windy it might be!

Date:

Astronomy

Jan. 03, 2013 Rise Set
Actual Time 7:55 AM PST 4:32 PM PST
Civil Twilight 7:20 AM PST 5:07 PM PST
Nautical Twilight 6:41 AM PST 5:46 PM PST
Astronomical Twilight 6:04 AM PST 6:23 PM PST
Moon 11:43 PM PST (1/3) 10:43 AM PST (1/3)
Length of Visible Light 9h 47m
Length of Day
8h 37m
Waning Gibbous, 64% of the Moon is Illuminated
Jan 3
Waning Gibbous
Jan 4
Last Quarter
Jan 11
New
Jan 18
First Quarter
Jan 26
Full

Hourly Weather History & Observations

Time (PST) Temp. Windchill Dew Point Humidity Pressure Visibility Wind Dir Wind Speed Gust Speed Precip Events Conditions
12:15 AM 24.8 °F - 24.8 °F 100% 30.18 in 8.0 mi Calm Calm - N/A   Clear
12:35 AM 26.6 °F - 26.6 °F 100% 30.18 in 9.0 mi Calm Calm - N/A   Clear
12:55 AM 24.8 °F - 24.8 °F 100% 30.18 in 9.0 mi Calm Calm - N/A   Clear
1:15 AM 23.0 °F - 23.0 °F 100% 30.18 in 8.0 mi Calm Calm - N/A   Clear
1:35 AM 24.8 °F - 24.8 °F 100% 30.19 in 10.0 mi Calm Calm - N/A   Clear
1:55 AM 24.8 °F - 24.8 °F 100% 30.19 in 9.0 mi Calm Calm - N/A   Clear
2:15 AM 24.8 °F - 24.8 °F 100% 30.19 in 9.0 mi Calm Calm - N/A   Clear
2:35 AM 24.8 °F - 24.8 °F 100% 30.18 in 10.0 mi Calm Calm - N/A   Clear
2:55 AM 24.8 °F - 24.8 °F 100% 30.18 in 10.0 mi Calm Calm - N/A   Clear
3:15 AM 23.0 °F - 23.0 °F 100% 30.18 in 10.0 mi Calm Calm - N/A   Clear
3:35 AM 23.0 °F - 23.0 °F 100% 30.17 in 10.0 mi Calm Calm - N/A   Clear
3:55 AM 23.0 °F - 23.0 °F 100% 30.16 in 8.0 mi Calm Calm - N/A   Clear
4:15 AM 23.0 °F - 23.0 °F 100% 30.16 in 10.0 mi Calm Calm - N/A   Clear
4:35 AM 23.0 °F - 23.0 °F 100% 30.15 in 10.0 mi Calm Calm - N/A   Clear
4:55 AM 23.0 °F - 23.0 °F 100% 30.14 in 10.0 mi Calm Calm - N/A   Clear
5:15 AM 23.0 °F - 23.0 °F 100% 30.14 in 10.0 mi Calm Calm - N/A   Clear
5:35 AM 21.2 °F - 21.2 °F 100% 30.13 in 10.0 mi Calm Calm - N/A   Clear
5:55 AM 23.0 °F - 23.0 °F 100% 30.13 in 10.0 mi Calm Calm - N/A   Clear
6:15 AM 21.2 °F - 19.4 °F 93% 30.12 in 10.0 mi Calm Calm - N/A   Clear
6:35 AM 19.4 °F - 19.4 °F 100% 30.12 in 10.0 mi Calm Calm - N/A   Clear
6:55 AM 23.0 °F - 23.0 °F 100% 30.13 in 10.0 mi Calm Calm - N/A   Clear
7:35 AM 23.0 °F - 23.0 °F 100% 30.11 in 10.0 mi Calm Calm - N/A   Partly Cloudy
7:55 AM 23.0 °F - 23.0 °F 100% 30.11 in 10.0 mi Calm Calm - N/A   Partly Cloudy
8:15 AM 23.0 °F - 23.0 °F 100% 30.11 in 10.0 mi Calm Calm - N/A   Clear
8:35 AM 23.0 °F - 23.0 °F 100% 30.11 in 10.0 mi Calm Calm - N/A   Clear
8:55 AM 24.8 °F - 24.8 °F 100% 30.12 in 10.0 mi Calm Calm - N/A   Clear
9:15 AM 26.6 °F - 26.6 °F 100% 30.13 in 10.0 mi Calm Calm - N/A   Clear
9:35 AM 28.4 °F - 28.4 °F 100% 30.13 in 10.0 mi Calm Calm - N/A   Clear
9:55 AM 30.2 °F - 30.2 °F 100% 30.13 in 10.0 mi Calm Calm - N/A   Clear
10:15 AM 32.0 °F - 32.0 °F 100% 30.14 in 10.0 mi Calm Calm - N/A Snow Light Snow
10:35 AM 32.0 °F - 32.0 °F 100% 30.15 in 10.0 mi Calm Calm - N/A Snow Light Snow
10:55 AM 33.8 °F - 32.0 °F 93% 30.14 in 10.0 mi Calm Calm - N/A   Clear
11:15 AM 35.6 °F - 32.0 °F 87% 30.13 in 10.0 mi Calm Calm - N/A   Clear
11:35 AM 37.4 °F - 32.0 °F 81% 30.13 in 10.0 mi Calm Calm - N/A   Clear
11:55 AM 37.4 °F - 32.0 °F 81% 30.13 in 10.0 mi Calm Calm - N/A   Clear
12:15 PM 37.4 °F - 32.0 °F 81% 30.12 in 10.0 mi Calm Calm - N/A   Clear
12:35 PM 39.2 °F - 32.0 °F 75% 30.12 in 10.0 mi Calm Calm - N/A   Clear
12:55 PM 39.2 °F - 32.0 °F 75% 30.11 in 10.0 mi Calm Calm - N/A   Clear
1:15 PM 41.0 °F - 32.0 °F 70% 30.10 in 10.0 mi Calm Calm - N/A   Clear
1:35 PM 41.0 °F - 30.2 °F 65% 30.10 in 10.0 mi Calm Calm - N/A   Clear
1:55 PM 41.0 °F - 32.0 °F 70% 30.10 in 10.0 mi Calm Calm - N/A   Clear
2:15 PM 41.0 °F - 32.0 °F 70% 30.11 in 10.0 mi Calm Calm - N/A   Clear
2:35 PM 39.2 °F - 32.0 °F 75% 30.13 in 10.0 mi Calm Calm - N/A   Clear
2:55 PM 37.4 °F 34.9 °F 32.0 °F 81% 30.14 in 10.0 mi WSW 3.5 mph - N/A   Clear
3:15 PM 37.4 °F - 32.0 °F 81% 30.13 in 10.0 mi Calm Calm - N/A   Clear
3:35 PM 37.4 °F - 32.0 °F 81% 30.12 in 10.0 mi Calm Calm - N/A   Clear
3:55 PM 37.4 °F - 32.0 °F 81% 30.12 in 10.0 mi Calm Calm - N/A   Clear
4:15 PM 37.4 °F - 32.0 °F 81% 30.12 in 10.0 mi Calm Calm - N/A   Clear
4:35 PM 35.6 °F - 32.0 °F 87% 30.12 in 10.0 mi Calm Calm - N/A   Partly Cloudy
4:55 PM 35.6 °F - 32.0 °F 87% 30.10 in 10.0 mi Calm Calm - N/A   Partly Cloudy
5:15 PM 37.4 °F - 32.0 °F 81% 30.09 in 10.0 mi Calm Calm - N/A   Scattered Clouds
5:35 PM 37.4 °F - 32.0 °F 81% 30.11 in 8.0 mi Calm Calm - N/A Rain Light Rain
5:55 PM 35.6 °F - 33.8 °F 93% 30.12 in 10.0 mi Calm Calm - N/A Rain Light Rain
6:15 PM 35.6 °F - 33.8 °F 93% 30.11 in 5.0 mi Calm Calm - 0.01 in Rain Light Rain
6:35 PM 35.6 °F - 35.6 °F 100% 30.11 in - Calm Calm - 0.02 in Rain Light Rain
6:55 PM 35.6 °F - 35.6 °F 100% 30.11 in - Calm Calm - 0.03 in Rain Light Rain
7:15 PM 35.6 °F - 35.6 °F 100% 30.11 in 9.0 mi Calm Calm - N/A   Mostly Cloudy
7:35 PM 35.6 °F - 35.6 °F 100% 30.11 in 9.0 mi Calm Calm - N/A Rain Light Rain
7:55 PM 35.6 °F - 35.6 °F 100% 30.11 in 10.0 mi Calm Calm - N/A Rain Light Rain
8:15 PM 35.6 °F - 35.6 °F 100% 30.11 in 7.0 mi Calm Calm - N/A   Overcast
8:35 PM 35.6 °F - 35.6 °F 100% 30.11 in 3.0 mi Calm Calm - N/A Rain Light Rain
8:55 PM 35.6 °F - 35.6 °F 100% 30.11 in 6.0 mi Calm Calm - N/A Rain Light Rain
9:15 PM 35.6 °F - 35.6 °F 100% 30.12 in 7.0 mi Calm Calm - N/A   Overcast
9:35 PM 35.6 °F - 35.6 °F 100% 30.12 in 8.0 mi Calm Calm - N/A   Overcast
9:55 PM 35.6 °F - 35.6 °F 100% 30.12 in 4.0 mi Calm Calm - N/A Rain Light Rain
10:15 PM 35.6 °F - 35.6 °F 100% 30.13 in 5.0 mi Calm Calm - N/A   Overcast
10:35 PM 35.6 °F - 35.6 °F 100% 30.14 in 5.0 mi Calm Calm - 0.01 in Rain Light Rain
10:55 PM 35.6 °F - 35.6 °F 100% 30.15 in 4.0 mi Calm Calm - 0.01 in Rain Light Rain
11:15 PM 35.6 °F - 35.6 °F 100% 30.15 in 3.0 mi Calm Calm - N/A Rain Light Rain
11:35 PM 35.6 °F - 35.6 °F 100% 30.15 in 5.0 mi Calm Calm - N/A Rain Light Rain
11:55 PM 35.6 °F - 35.6 °F 100% 30.15 in 4.0 mi Calm Calm - N/A   Overcast